RH
77 81 82 89 95 98 94 95 98 97 99 91 82 72 67 73 70 60 58 32 23 23 24 26 32 32 33 34 31 29 48 58 44 34 30 23 24 19 16 20 22 27 37 34 40
79 79 78 81 83 96 97 100 100 99 95 99 90 78 67 77 72 67 33 34 26 21 26 28 35 36 39 32 36 40 55 44 24 19 27 23 25 22 20 21 24 45 46 41 41
78 77 81 79 82 80 96 99 100 100 97 99 97 86 72 75 80 47 31 23 31 24 20 23 30 32 36 32 36 35 46 34 30 17 18 21 20 17 22 24 23 39 50 49 48
86 77 82 78 81 75 81 96 98 100 99 94 100 91 82 74 62 31 24 20 26 19 22 34 36 31 36 36 30 37 32 29 29 19 17 17 16 20 20 22 16 21 47 52 55
84 90 88 86 86 86 74 87 90 87 99 98 97 97 91 86 66 31 28 33 27 23 27 39 40 31 35 32 31 33 32 27 24 22 19 19 20 19 19 19 18 31 47 52 53
89 90 86 90 93 93 90 77 93 96 95 99 96 100 88 92 51 34 29 34 31 37 33 36 35 28 27 31 32 26 28 25 22 22 20 20 20 20 20 18 17 20 42 50 52
86 88 89 89 93 91 94 85 88 95 80 78 85 100 91 78 48 32 33 26 29 44 35 31 32 24 23 22 21 23 22 22 22 22 23 22 26 25 21 20 19 17 22 24 36
88 88 93 91 94 94 93 90 88 93 61 76 84 100 89 69 59 54 37 35 30 32 38 27 29 25 26 23 21 22 23 30 24 20 20 21 31 23 22 21 22 20 20 21 22
81 89 94 91 90 94 95 93 88 57 63 69 97 99 88 65 67 48 43 39 32 30 32 30 28 27 27 32 36 31 36 32 29 21 23 24 28 22 18 15 17 18 17 18 20
77 84 95 95 88 94 95 90 50 74 68 71 92 97 85 73 49 54 37 33 30 34 34 34 30 35 38 42 53 42 37 30 30 23 24 27 26 22 19 17 18 18 17 17 18
81 78 88 95 89 90 91 79 78 88 83 88 80 66 54 60 43 35 37 32 32 37 51 39 42 44 36 35 31 30 29 32 26 23 23 28 26 24 22 23 24 24 24 22 20
78 78 81 93 93 86 87 91 78 96 92 59 58 78 56 47 50 34 33 38 39 47 44 45 48 35 30 30 32 30 32 33 26 23 24 28 30 28 26 24 22 22 26 24 21
69 75 82 92 73 79 77 80 85 79 99 71 58 64 74 60 64 37 26 34 37 44 47 46 40 31 29 30 31 31 34 31 29 24 27 26 36 31 26 25 22 20 24 23 23
81 75 79 93 73 72 70 78 81 80 98 85 78 67 65 53 67 42 24 30 31 40 43 46 33 33 33 31 27 33 26 25 28 32 43 28 54 34 27 24 22 24 26 24 22
76 80 76 87 94 91 62 67 77 79 97 48 66 53 60 71 57 51 36 27 34 42 44 48 42 39 35 31 26 29 26 28 29 35 38 37 50 41 28 26 23 23 25 25 22
77 78 74 75 84 76 68 67 74 98 94 67 69 85 87 69 60 46 42 35 26 34 35 38 30 32 31 25 24 26 29 31 37 43 57 45 46 49 31 24 21 22 21 20 19
80 80 75 75 82 74 67 80 99 97 58 64 84 77 79 79 72 61 58 50 43 56 54 40 39 30 27 33 31 27 37 56 58 63 59 38 40 39 27 23 20 18 21 19 23
75 75 78 77 66 78 80 96 97 64 50 42 44 70 86 71 71 68 63 81 45 41 57 52 59 37 33 32 38 32 36 53 67 70 56 37 47 34 24 20 19 18 18 24 26
78 81 82 66 58 77 98 97 87 69 42 74 71 94 91 74 72 73 70 79 56 34 48 52 48 34 32 30 28 41 43 32 45 42 54 46 35 26 20 21 18 19 20 20 23
93 91 76 59 71 78 99 92 87 49 42 57 95 94 99 89 87 79 76 66 65 36 30 41 50 34 37 31 32 33 32 45 54 64 65 54 43 38 28 24 22 22 24 31 29
92 93 57 66 73 95 98 93 64 51 45 69 89 97 93 100 90 88 72 62 52 38 33 32 39 41 40 42 40 45 43 44 42 56 59 63 54 35 26 25 24 24 24 34 35
90 94 48 59 100 97 90 73 62 69 49 55 58 61 64 92 100 100 85 63 50 37 38 30 55 49 44 35 30 32 38 37 49 58 50 58 54 21 25 26 25 25 23 28 37
97 81 62 67 99 97 96 88 96 66 61 55 55 63 52 82 100 99 94 56 48 40 34 35 60 78 59 43 37 41 36 37 39 45 55 52 49 25 24 25 24 26 26 32 38
99 97 90 90 91 84 92 92 84 65 77 71 62 49 80 89 73 96 81 74 46 48 48 39 71 86 73 56 39 45 41 36 38 48 46 45 38 28 25 28 26 25 26 34 38
100 95 86 96 88 98 98 96 76 74 74 74 66 60 58 68 66 89 90 92 76 65 53 43 86 72 55 43 38 38 40 39 40 36 44 36 36 30 29 26 24 24 26 32 38
100 98 92 99 75 72 71 78 64 57 82 76 83 65 51 57 55 64 81 95 98 80 63 68 83 65 59 43 37 40 38 38 38 35 36 35 40 29 26 28 25 25 27 28 33
86 89 99 81 79 80 82 67 65 56 60 62 68 87 91 64 54 48 81 95 96 100 97 85 76 67 74 47 49 63 41 39 36 33 34 42 32 30 29 29 29 26 25 26 27
Wind_Speed
22 22 20 21 22 21 21 21 19 18 20 19 17 18 19 21 24 24 11 16 8 6 9 10 8 10 12 3 2 2 1 4 5 3 1 2 6 2 3 5 4 3 7 11 32
23 23 23 21 21 22 22 21 21 20 19 21 19 16 17 19 24 18 30 26 16 10 12 9 5 10 2 3 2 4 3 6 3 4 3 2 4 4 4 4 4 6 8 27 34
23 24 23 22 21 21 22 24 23 21 21 21 20 16 13 14 7 9 6 5 20 17 16 13 12 5 6 4 5 5 6 1 5 2 5 3 2 1 5 2 4 11 14 15 15
24 24 26 23 22 21 23 23 22 21 20 21 22 16 10 2 6 3 8 8 10 13 10 5 5 4 6 7 6 6 10 10 6 3 3 2 2 2 4 6 5 8 15 13 11
24 24 24 25 24 22 22 24 24 25 25 22 18 17 6 4 11 12 9 19 7 14 15 6 4 4 6 6 6 6 8 9 5 7 5 2 3 3 4 8 3 8 12 13 13
26 23 24 25 24 23 21 22 23 22 24 24 18 19 7 11 22 26 25 22 13 15 15 12 7 8 5 9 5 5 11 12 4 7 7 5 5 3 6 8 9 10 12 12 13
25 25 24 25 24 25 23 21 23 23 25 25 20 20 11 16 12 9 5 11 16 18 8 24 23 3 3 3 7 6 4 4 3 5 6 5 6 8 10 10 10 10 10 10 14
25 25 23 24 24 24 21 21 23 26 28 25 21 23 11 15 27 36 29 23 16 16 23 22 23 6 5 3 5 1 3 2 5 5 4 10 10 8 12 9 15 12 9 9 13
25 26 23 24 25 25 21 23 27 29 27 24 20 15 9 9 30 31 31 22 22 15 13 22 9 8 3 4 2 2 3 7 6 9 5 6 6 10 5 8 8 8 9 9 10
24 25 25 24 25 25 24 25 33 29 17 18 21 7 8 10 13 35 34 25 11 6 3 4 4 5 3 4 8 7 7 6 6 5 8 7 9 8 7 6 10 10 10 10 9
26 25 25 25 24 25 25 16 6 1 7 8 4 11 6 27 11 17 29 17 16 5 8 6 5 13 16 13 6 5 5 9 6 9 6 9 7 11 11 6 10 10 10 11 11
24 26 26 26 26 26 17 2 2 5 9 17 20 17 34 5 4 9 23 13 14 17 9 5 19 12 10 13 13 11 12 9 7 5 6 8 12 11 9 8 12 13 10 11 8
23 24 25 26 29 10 12 11 5 18 7 9 9 16 14 11 10 8 19 15 12 14 20 19 13 15 16 18 19 18 15 7 8 3 1 2 6 8 11 7 13 17 11 9 12
21 21 23 24 15 16 14 6 18 16 6 5 8 10 16 9 13 15 14 17 7 21 21 15 15 24 18 21 17 17 6 11 7 3 4 4 5 7 10 15 11 10 10 13 11
21 19 21 20 19 5 13 22 11 3 5 8 9 9 15 15 11 12 29 16 19 9 10 14 18 18 21 21 12 13 8 6 2 0 1 2 3 6 13 14 19 9 11 10 10
22 21 20 22 15 20 21 21 6 3 7 5 7 13 16 23 17 2 16 12 23 12 20 15 10 20 14 17 18 6 5 3 4 3 5 6 6 5 9 17 9 6 7 7 6
24 24 24 19 15 15 21 9 4 6 7 6 6 11 24 23 25 19 16 20 17 18 16 23 20 9 13 9 8 11 7 1 2 2 7 9 9 10 8 7 8 8 8 7 8
26 28 26 27 31 20 16 4 9 7 16 16 13 13 21 19 23 28 23 21 21 22 12 14 15 24 6 10 8 15 11 6 7 5 4 8 7 6 17 11 8 8 9 8 8
28 28 21 29 22 19 6 11 5 6 7 11 17 7 13 21 11 21 27 24 28 24 16 15 14 9 8 6 19 6 9 12 1 1 2 5 6 8 2 8 6 8 6 7 7
17 17 21 25 20 15 7 17 5 11 17 10 6 7 6 9 17 25 26 23 26 29 22 8 9 15 6 8 5 14 9 6 3 4 5 4 5 7 6 9 7 8 8 7 6
7 4 16 18 12 3 7 6 12 17 15 3 6 6 6 6 14 14 19 17 34 33 32 17 10 12 9 12 18 4 9 4 5 6 5 2 6 9 16 11 12 9 9 9 8
3 5 11 13 3 3 7 3 6 13 10 12 12 16 18 11 9 8 21 24 36 31 36 31 3 10 26 4 15 23 14 19 8 6 8 4 6 4 5 9 9 9 8 6 7
2 5 14 8 3 1 2 7 8 16 13 6 11 6 9 9 7 5 8 15 18 25 29 25 9 8 6 3 3 15 19 11 4 3 7 10 5 5 8 8 8 10 8 8 8
2 3 4 1 2 4 2 2 4 5 7 12 20 16 9 10 10 10 8 9 18 15 23 32 10 11 13 30 15 11 20 19 15 9 10 16 6 4 3 10 8 9 10 10 11
3 3 4 3 3 3 2 4 7 6 4 6 9 21 19 10 13 13 10 9 15 16 21 19 19 21 15 4 18 18 19 21 23 28 16 22 21 15 8 8 10 10 9 8 9
2 3 2 3 7 9 7 3 7 13 3 7 10 16 15 17 17 22 16 11 9 5 18 13 12 18 21 11 19 18 20 24 27 26 23 11 8 9 13 7 5 9 9 10 9
8 6 3 5 2 1 4 7 7 10 6 9 10 14 16 17 14 14 8 10 11 8 12 10 10 21 17 8 13 10 27 20 19 22 21 20 22 9 8 9 10 10 9 10 12
Wind_Direction
337 329 318 320 317 320 314 313 305 297 279 284 292 302 307 312 310 309 255 252 220 272 240 283 241 244 271 283 272 26 50 267 254 220 131 163 116 82 150 119 57 32 154 167 163
337 331 322 317 308 315 315 320 312 305 294 275 283 294 307 316 315 278 275 270 234 235 220 227 226 227 237 243 280 126 177 232 286 352 128 81 86 157 117 137 93 75 66 136 157
334 330 324 320 317 302 309 314 315 316 299 290 272 283 299 321 305 245 237 230 214 228 225 229 249 193 201 231 235 198 225 214 316 35 34 111 67 57 125 238 195 171 157 155 165
333 329 328 319 316 312 301 306 309 316 315 284 270 270 278 323 264 218 134 78 194 206 206 224 256 208 199 220 232 236 253 252 262 286 58 36 352 140 164 217 140 168 168 159 170
331 332 329 322 315 309 302 300 299 297 309 310 275 248 242 192 237 239 245 288 238 194 200 205 240 203 201 196 241 210 242 259 245 193 161 36 300 221 255 260 270 146 159 177 183
333 330 331 327 318 317 302 295 297 299 300 305 273 232 208 235 252 261 272 256 227 198 206 209 218 212 239 231 192 245 227 241 233 228 182 176 243 127 260 264 266 161 186 187 188
333 333 332 327 319 314 303 299 295 296 295 297 275 224 225 227 246 270 287 227 222 217 204 216 230 173 206 239 227 217 215 309 273 222 219 158 278 234 239 252 246 236 202 208 203
334 331 333 333 326 320 304 299 297 292 286 293 277 244 244 244 263 262 255 277 257 240 223 220 232 217 185 282 330 218 80 209 272 219 231 144 252 251 251 248 235 234 244 221 214
332 333 330 335 332 327 314 304 296 295 281 282 283 214 242 235 233 233 239 240 261 242 218 229 240 208 250 160 299 311 211 231 286 234 165 171 243 229 236 204 211 219 235 229 225
329 334 334 334 334 330 323 311 305 286 265 266 248 189 253 233 216 217 224 225 219 209 244 214 195 189 191 136 197 207 214 237 213 222 173 192 237 260 256 227 225 224 232 234 231
328 331 332 330 329 327 329 336 2 59 238 234 297 215 293 229 233 206 206 205 211 204 183 185 181 210 205 218 209 212 219 227 263 226 144 202 217 241 254 240 243 244 240 242 237
328 326 329 326 324 321 315 263 286 9 297 293 277 264 243 317 299 213 190 186 194 212 168 169 219 207 203 214 226 222 234 254 270 217 150 218 233 232 230 241 238 241 232 234 238
322 323 327 328 322 336 322 262 283 346 249 274 233 241 246 249 238 237 176 183 195 200 194 199 208 191 203 210 217 227 227 229 217 182 241 220 271 249 255 250 258 253 229 226 224
321 320 325 329 324 325 313 343 343 356 263 248 206 240 209 229 231 210 206 181 212 205 197 215 215 188 205 219 211 228 194 230 217 121 238 125 276 287 293 280 262 247 232 235 234
312 317 323 324 299 273 298 316 313 360 261 210 201 202 177 200 135 223 217 190 213 188 171 208 187 209 210 212 202 226 197 207 142 179 194 274 295 259 237 263 263 248 237 224 232
309 309 313 315 299 273 299 323 293 251 247 250 169 183 165 196 208 224 193 220 202 211 209 210 187 197 202 210 211 155 123 74 61 103 253 187 199 237 233 238 246 234 194 203 205
306 304 299 289 265 280 300 321 232 218 313 241 197 194 189 193 207 201 185 203 197 211 223 212 223 216 180 187 173 175 124 111 288 243 238 190 229 239 245 233 186 186 183 206 197
308 305 292 272 274 267 279 208 240 218 235 291 312 272 201 192 206 205 212 195 227 192 201 203 210 216 187 184 161 178 170 169 199 203 225 206 235 241 220 223 170 175 167 169 182
312 302 281 274 269 245 217 229 212 242 283 355 320 266 241 206 182 194 207 195 203 210 189 204 220 153 186 148 166 179 189 167 59 193 143 227 279 318 207 212 140 158 145 180 197
317 304 275 286 248 222 233 229 233 243 278 354 294 285 241 225 200 189 196 191 201 207 207 195 200 198 171 117 210 176 145 163 170 232 246 259 235 225 230 222 181 157 162 174 163
299 288 283 333 179 174 249 212 248 246 265 216 272 302 316 323 261 202 194 189 200 197 204 230 184 209 140 194 186 129 183 160 161 174 194 217 253 213 218 203 178 181 174 175 181
281 271 282 326 263 193 231 260 195 259 248 241 244 256 268 292 302 271 205 212 194 195 196 208 302 183 196 173 186 197 187 187 194 208 212 165 258 201 192 154 148 170 173 173 172
254 276 289 227 254 251 313 274 281 257 268 263 252 252 254 280 277 285 258 220 224 204 198 195 186 202 122 11 181 203 207 194 205 103 200 205 247 273 163 165 173 161 181 172 167
256 287 300 112 217 266 277 266 290 280 292 265 261 262 237 273 276 273 298 282 250 225 222 204 182 203 193 197 180 184 190 200 202 223 206 230 213 277 189 178 195 190 180 177 179
198 244 230 291 314 275 241 206 291 290 216 314 266 251 259 265 265 287 270 327 264 221 210 203 202 211 224 182 183 202 196 198 207 221 203 235 232 224 226 212 207 202 188 174 181
236 248 307 288 288 281 287 253 276 288 252 307 302 291 275 251 249 280 300 329 294 343 209 212 212 209 222 198 189 199 203 207 213 216 230 237 244 201 216 214 196 213 189 198 194
204 237 240 253 256 242 234 256 270 322 282 245 311 315 306 279 307 297 324 290 273 318 298 221 188 201 216 189 210 235 216 213 219 222 221 228 235 201 239 217 198 201 196 184 193